West Plains, MO

6:06 PM CDT on April 25, 2018 (GMT -0500)
West Plains Municipal

Weather History for KUNO - August, 2014

Change the Weather History Date:

Wednesday, August 20, 2014

  Actual Average Record
Temperature  
Mean Temperature 82 °F 77 °F  
Max Temperature 93 °F 89 °F 102 °F (1962)
Min Temperature 71 °F 65 °F 49 °F (1967)
Degree Days  
Heating Degree Days 0 0  
Month to date heating degree days 0 0  
Since 1 June heating degree days 4 5  
Since 1 July heating degree days 2 0  
Cooling Degree Days 17 12  
Month to date cooling degree days 225 257  
Year to date cooling degree days 874 1050  
Since 1 June cooling degree days 724 928  
Growing Degree Days 32 (Base 50)    
Moisture  
Dew Point 67 °F    
Average Humidity 67    
Maximum Humidity 93    
Minimum Humidity 41    
Precipitation  
Precipitation 0.00 in 0.11 in 1.88 in (1959)
Month to date precipitation 2.75 2.06  
Year to date precipitation 21.59 28.90  
Sea Level Pressure  
Sea Level Pressure 29.94 in    
Wind  
Wind Speed 7 mph (SW)    
Max Wind Speed 15 mph    
Max Gust Speed 22 mph    
Visibility 10 miles    
Events      
T = Trace of Precipitation, MM = Missing Value Source: NWS Daily Summary

Daily Weather History Graph

Daily Weather History Graph

Search for Another Location

Airport or City:

Astronomy

Aug. 20, 2014 Rise Set
Actual Time 6:28 AM CDT 7:52 PM CDT
Civil Twilight 6:01 AM CDT 8:19 PM CDT
Nautical Twilight 5:28 AM CDT 8:52 PM CDT
Astronomical Twilight 4:54 AM CDT 9:26 PM CDT
Moon 2:11 AM CDT (8/20) 4:35 PM CDT (8/20)
Length of Visible Light 14h 18m
Length of Day
13h 23m
Waning Crescent, 20% of the Moon is Illuminated
Aug 20
Waning Crescent
Aug 25
New
Sep 2
First Quarter
Sep 8
Full
Sep 15
Last Quarter

Hourly Weather History & Observations

Time (CDT) Temp. Heat Index Dew Point Humidity Pressure Visibility Wind Dir Wind Speed Gust Speed Precip Events Conditions
12:53 AM 75.9 °F - 70.0 °F 82% 29.87 in 10.0 mi SW 5.8 mph - N/A   Clear
1:53 AM 75.9 °F - 71.1 °F 85% 29.88 in 10.0 mi WSW 4.6 mph - N/A   Clear
2:53 AM 75.0 °F - 70.0 °F 84% 29.88 in 10.0 mi WSW 4.6 mph - N/A   Clear
3:53 AM 73.9 °F - 70.0 °F 87% 29.90 in 10.0 mi West 5.8 mph - N/A   Clear
4:53 AM 73.0 °F - 69.1 °F 87% 29.89 in 10.0 mi West 4.6 mph - N/A   Clear
5:53 AM 73.0 °F - 69.1 °F 87% 29.90 in 9.0 mi West 6.9 mph - N/A   Clear
6:53 AM 71.1 °F - 69.1 °F 93% 29.92 in 10.0 mi West 3.5 mph - N/A   Clear
7:53 AM 75.9 °F - 70.0 °F 82% 29.94 in 10.0 mi West 6.9 mph - N/A   Clear
8:53 AM 80.1 °F 83.6 °F 71.1 °F 74% 29.96 in 10.0 mi WSW 8.1 mph - N/A   Clear
9:53 AM 82.9 °F 87.0 °F 70.0 °F 65% 29.98 in 10.0 mi WSW 10.4 mph - N/A   Clear
10:53 AM 84.9 °F 88.8 °F 69.1 °F 59% 29.98 in 10.0 mi WSW 8.1 mph - N/A   Clear
11:53 AM 88.0 °F 92.9 °F 70.0 °F 55% 29.99 in 10.0 mi Variable 6.9 mph - N/A   Clear
12:53 PM 91.0 °F 95.2 °F 68.0 °F 47% 29.99 in 10.0 mi WSW 8.1 mph - N/A   Clear
1:53 PM 91.9 °F 95.9 °F 68.0 °F 45% 29.98 in 10.0 mi South 8.1 mph - N/A   Partly Cloudy
2:53 PM 93.0 °F 97.4 °F 68.0 °F 44% 29.96 in 10.0 mi SSW 8.1 mph - N/A   Clear
3:53 PM 91.0 °F 93.8 °F 66.0 °F 44% 29.95 in 10.0 mi SSW 11.5 mph - N/A   Partly Cloudy
4:53 PM 91.9 °F 94.1 °F 64.9 °F 41% 29.94 in 10.0 mi SSW 10.4 mph - N/A   Clear
5:53 PM 91.9 °F 94.1 °F 64.9 °F 41% 29.92 in 10.0 mi SW 9.2 mph - N/A   Clear
6:53 PM 88.0 °F 89.3 °F 64.0 °F 45% 29.91 in 10.0 mi SSW 6.9 mph - N/A   Clear
7:53 PM 82.9 °F 83.2 °F 60.1 °F 46% 29.93 in 10.0 mi SSW 4.6 mph - N/A   Clear
8:53 PM 81.0 °F 81.1 °F 57.9 °F 45% 29.96 in 10.0 mi SSW 4.6 mph - N/A   Clear
9:53 PM 82.0 °F 82.0 °F 57.9 °F 44% 29.99 in 10.0 mi SSW 4.6 mph - N/A   Clear
10:53 PM 82.0 °F 82.4 °F 60.1 °F 47% 29.99 in 10.0 mi SSW 5.8 mph - N/A   Clear
11:53 PM 81.0 °F 82.2 °F 63.0 °F 54% 30.00 in 10.0 mi South 8.1 mph - N/A   Clear